Retour au catalogue

STARLINK-32954

ActifCommunicationsVLEO
NORAD 63567·PAYLOAD·🇺🇸 United States

Lancé Apr 13, 2025 depuis Cape Canaveral Space Force Station

Loading…

Prochains Passages (prochaines 24 heures)

TLE

FraisSource: CelesTrak SupGP

Époque: Sep 15, 2026, 02:53 UTC

1 63567C 25075V   26258.12062500  .00001611  00000+0  58352-4 0  2588
2 63567  42.9999 280.6723 0001418 263.7898 320.9679 15.27579642    11

Suivez STARLINK-32954 en temps réel avec AllMySat

Download on the App Store